Regional Weather Roundup
Issued by NWS

Home | Current Version | Previous Version | Graphics & Text | Print | Product List | Glossary Off
Versions: 1 2 3 4 5 6 7 8 9 10 11 12 13 14 15 16 17 18 19 20 21 22 23 24 25 26 27 28 29 30 31 32 33 34 35 36 37 38 39 40 41 42 43 44 45 46 47 48 49 50

000
ASUS43 KLSX 240807
RWRMO

WEATHER SUMMARY FOR MISSOURI
NATIONAL WEATHER SERVICE SPRINGFIELD MO
300 AM CDT THU JUL 24 2014

NOTE: "FAIR" INDICATES FEW OR NO CLOUDS BELOW 12,000 FEET WITH NO
       SIGNIFICANT WEATHER AND/OR OBSTRUCTIONS TO VISIBILITY.
       CURRENT SKY AND/OR WEATHER CONDITIONS ARE NOT AVAILABLE FOR
       CHILLICOTHE AND FARMINGTON.

MOZ001>031-035>038-043-044-053-054-240900-
...NORTHERN AND WESTERN MISSOURI...

CITY           SKY/WX    TMP DP  RH WIND       PRES   REMARKS
KANSAS CTY INT PTCLDY    69  60  73 E9        30.13F
KANSAS C DTWN  CLEAR     71  61  70 E8        30.11F
LEE`S SUMMIT   CLEAR     67  61  81 E6        30.13F
ST JOSEPH      CLEAR     68  60  75 E5        30.14F
CHILLICOTHE      N/A     62  58  86 CALM      30.16S
KIRKSVILLE     CLEAR     59  57  93 N3        30.15F

$$
MOZ066>068-077>081-088>096-101>105-240900-
...SOUTHWEST MISSOURI...

CITY           SKY/WX    TMP DP  RH WIND       PRES   REMARKS
SPRINGFIELD    CLEAR     70  65  84 NE7       30.08F
JOPLIN         CLEAR     69  66  90 NE6       30.07F

$$
MOZ032>034-039>042-045>050-055>058-069>072-240900-
...CENTRAL MISSOURI...

CITY           SKY/WX    TMP DP  RH WIND       PRES   REMARKS
COLUMBIA       CLEAR     62  58  86 NE6       30.12F
JEFFERSON CITY CLEAR     67  60  78 NE7       30.10F
ROLLA          CLEAR     63  59  87 NE6       30.09F
SEDALIA        CLEAR     66  60  81 NE3       30.12F
WHITEMAN AFB   CLEAR     65  59  81 NE1       30.11F
OSAGE BEACH    CLEAR     66  61  82 CALM      30.10S

$$
MOZ051-052-059>065-240900-
...EAST CENTRAL MISSOURI...

CITY           SKY/WX    TMP DP  RH WIND       PRES   REMARKS
ST LOUIS INTL  CLEAR     66  53  63 NE9       30.10F
SPIRIT OF STL  CLEAR     57  56  96 SW3       30.09F
ST CHARLES     CLEAR     62  54  74 CALM      30.09F

$$
MOZ072>076-082>087-097>100-106>115-240900-
...SOUTH CENTRAL AND SOUTHEAST MISSOURI...

CITY           SKY/WX    TMP DP  RH WIND       PRES   REMARKS
CAPE GIRARDEAU CLEAR     64  58  80 N3        30.05S
FARMINGTON     CLEAR     63  52  67 NE7       30.11S
POPLAR BLUFF   CLEAR     68  58  70 N6        30.04R
WEST PLAINS    CLEAR     69  65  86 NE7       30.09S

$$


USA.gov is the U.S. government's official web portal to all federal, state and local government web resources and services.